Location: Roswell
(33.3940°N, 104.5230°W)
Time: 00:39:07
(UTC-06:00)

Envisat - Visible Passes

Search period start: 26 October 2021 00:00
Search period end: 05 November 2021 00:00
Orbit: 764 x 766 km, 98.2° (Epoch: 25 October)

Date Brightness Start Highest point End Pass type
(mag) Time Alt. Az. Time Alt. Az. Time Alt. Az.
26 Oct 4.3 05:29:58 10° NNE 05:34:45 41° E 05:39:30 10° SSE visible
27 Oct 5.8 04:54:27 10° NE 04:57:42 17° E 05:00:56 10° SE visible
27 Oct 3.3 06:32:04 10° N 06:36:51 44° WNW 06:41:38 10° SW visible
28 Oct 3.1 05:55:01 10° NNE 06:00:07 77° ESE 06:05:10 10° S visible
28 Oct 6.7 18:48:23 10° WSW 18:49:38 11° W 18:50:52 10° WNW visible
29 Oct 4.8 05:18:42 10° NE 05:23:11 31° E 05:27:39 10° SSE visible
30 Oct 6.1 04:43:53 10° ENE 04:46:04 13° E 04:48:16 10° ESE visible
30 Oct 3.0 06:20:24 10° N 06:25:23 57° WNW 06:30:20 10° SSW visible
31 Oct 3.6 05:43:34 10° NNE 05:48:35 59° E 05:53:33 10° S visible
31 Oct 6.2 18:35:13 10° SW 18:37:59 15° W 18:40:46 10° WNW visible
01 Nov 5.3 05:07:32 10° NE 05:11:36 24° E 05:15:39 10° SSE visible
01 Nov 3.7 06:46:07 10° N 06:50:33 31° WNW 06:54:58 10° SW visible
02 Nov 2.9 06:08:49 10° N 06:13:53 75° WNW 06:18:56 10° SSW visible
03 Nov 4.1 05:32:10 10° NNE 05:37:02 44° E 05:41:51 10° S visible
03 Nov 6.0 18:22:47 10° SW 18:26:22 19° W 18:29:58 10° NW visible
04 Nov 5.6 04:56:30 10° NE 04:59:59 18° E 05:03:27 10° SE visible
04 Nov 3.4 06:34:22 10° N 06:39:05 40° WNW 06:43:48 10° SW visible
